User: anonymous   Login
Location: Unspecified
(0.0000°N, 0.0000°E)
Time: 21:20:22
(UTC+00:00)
Language:

GOMX 1 - Orbit

View from above orbital plane
View from above orbital plane
View from above satellite
View from above satellite

Ground track
Ground track

The orbit data is extracted from the following two-line orbital elements,

1 39423U 13066H   17141.89312636 +.00000033 +00000-0 +15773-4 0  9992
2 39423 097.6811 132.4474 0176064 159.9090 200.9166 14.52834957185418
Epoch (UTC): 21 May 2017 21:26:06
Eccentricity: 0.0176064
inclination: 97.6811°
perigee height: 591 km
apogee height: 841 km
right ascension of ascending node: 132.4474°
argument of perigee: 159.9090°
revolutions per day: 14.52834957
mean anomaly at epoch: 200.9166°
orbit number at epoch: 18541

The dashed part of the orbit path shows where the satellite is in the earth's shadow,  

DLR